Retour au catalogue

STARLINK-32333

ActifCommunicationsVLEO
NORAD 61626·PAYLOAD·🇺🇸 United States

Lancé Oct 23, 2024 depuis Cape Canaveral Space Force Station

Loading…

Prochains Passages (prochaines 24 heures)

TLE

FraisSource: CelesTrak SupGP

Époque: Sep 14, 2026, 21:13 UTC

1 61626C 24191F   26257.88451389 -.00024142  00000+0 -87447-3 0  2570
2 61626  42.9991 169.6888 0001399 265.4312 289.8238 15.27589087    11

Suivez STARLINK-32333 en temps réel avec AllMySat

Download on the App Store